Regional Weather Roundup
Issued by NWS

Home | Current Version | Previous Version | Graphics & Text | Print | Product List | Glossary On
Versions: 1 2 3 4 5 6 7 8 9 10 11 12 13 14 15 16 17 18 19 20 21 22 23 24 25 26 27 28 29 30 31 32 33 34 35 36 37 38 39 40 41 42 43 44 45 46 47 48 49 50
000
ASUS43 KFSD 181610
RWRSD

WEATHER ROUNDUP FOR SOUTH DAKOTA
NATIONAL WEATHER SERVICE SIOUX FALLS SD
1100 AM CDT WED OCT 18 2017

NOTE: "FAIR" INDICATES FEW OR NO CLOUDS BELOW 12,000 FEET WITH NO
SIGNIFICANT WEATHER AND/OR OBSTRUCTIONS TO VISIBILITY.


SDZ001>005-009-010-012>017-181700-
NORTHWEST AND NORTH CENTRAL SOUTH DAKOTA

CITY           SKY/WX    TMP DP  RH WIND       PRES   REMARKS
BUFFALO          N/A     51  23  33 NW12      30.01R
FAITH            N/A     55  24  30 N18       30.05R
MOBRIDGE       CLOUDY    56  26  31 N20G29    29.95R
$$

SDZ012>016-024>037-041>051-057-063-072>074-181700-
SOUTHWEST AND SOUTH CENTRAL SOUTH DAKOTA

CITY           SKY/WX    TMP DP  RH WIND       PRES   REMARKS
RAPID CTY ARPT SUNNY     56  25  30 N18       30.11R
PIERRE         SUNNY     61  30  31 NW22G28   29.99R
CUSTER         SUNNY     58  19  22 CALM      30.12R
ELLSWORTH AFB  SUNNY     56  23  28 N16G22    30.10R
PHILIP         SUNNY     59  30  33 NW15      30.06R
PINE RIDGE     SUNNY     61  28  28 NE17      30.10R
SPEARFISH      FAIR      52  27  37 W6        30.12R
WINNER         FAIR      63  35  35 N20       29.99R
$$

SDZ004>011-016>023-039-040-181700-
NORTHEAST SOUTH DAKOTA

CITY           SKY/WX    TMP DP  RH WIND       PRES   REMARKS
ABERDEEN       MOSUNNY   61  32  33 NW24G32   29.93R
WATERTOWN      MOSUNNY   58  37  45 N20G28    29.89R
BROOKINGS      MOSUNNY   61  40  45 N17       29.89R
SISSETON         N/A     63  35  35 NW29G39   29.86R
$$

SDZ017-020-022-023-036>040-048>070-181700-
SOUTHEAST SOUTH DAKOTA

CITY           SKY/WX    TMP DP  RH WIND       PRES   REMARKS
SIOUX FALLS    PTSUNNY   63  46  54 NW13      29.88R
HURON          SUNNY     61  37  41 N18       29.92R
CHAMBERLAIN    SUNNY     64  36  35 N18G28    29.95R
MITCHELL       SUNNY     63  36  36 N25       29.92R
YANKTON        SUNNY     63  39  41 NW12      29.88R
$$

ABBREVIATIONS USED IN REMARKS
   TC - TEMPERATURE IN CELSIUS
  WCI - WIND CHILL INDEX
   HX - HEAT INDEX
  VSB - VISIBILITY




USA.gov is the U.S. government's official web portal to all federal, state and local government web resources and services.